SCP
0 0 0 0 0 0 0 0 0 0 0 0 0 0 0 0 0 0 0 0 0 0 0 0 0 0 0 0 0 0 0 0 0 0 0 0 0 0 0 0 0 0 0 0 0 0 0 0 0 0 0 0 0 0
0 0 0 0 0 0 0 0 0 0 0 0 0 0 0 0 0 0 0 0 0 0 0 0 0 0 0 0 0 0 0 0 0 0 0 0 0 0 0 0 0 0 0 0 0 0 0 0 0 0 0 0 0 0
0 0 0 0 0 0 0 0 0 0 0 0 0 0 0 0 0 0 0 0 0 0 0 0 0 0 0 0 0 0 0 0 0 0 0 0 0 0 0 0 0 0 0 0 0 0 0 0 0 0 0 0 0 0
0 0 0 0 0 0 0 0 0 0 0 0 0 0 0 0 0 0 0 0 0 0 0 0 0 0 0 0 0 0 0 0 0 0 0 0 0 0 0 0 0 0 0 0 0 0 0 0 0 0 0 0 0 0
0 0 0 0 0 0 0 0 0 0 0 0 0 0 0 0 0 0 0 0 0 0 0 0 0 0 0 0 0 0 0 0 0 0 0 0 0 0 0 0 0 0 0 0 0 0 0 0 0 0 0 0 0 0
0 0 0 0 0 0 0 0 0 0 0 0 0 0 0 0 0 0 0 0 0 0 0 0 0 0 0 0 0 0 0 0 0 0 0 0 0 0 0 0 0 0 0 0 0 0 0 0 0 0 0 0 0 0
0 0 0 0 0 0 0 0 0 0 0 0 0 0 0 0 0 0 0 0 0 0 0 0 0 0 0 0 0 0 0 0 0 0 0 0 0 0 0 0 0 0 0 0 0 0 0 0 0 0 0 0 0 0
0 0 0 0 0 0 0 0 0 0 0 0 0 0 0 0 0 0 0 0 0 0 0 0 0 0 0 0 0 0 0 0 0 0 0 0 0 0 0 0 0 0 0 0 0 0 0 0 0 0 0 0 0 0
0 0 0 0 0 0 0 0 0 0 0 0 0 0 0 0 0 0 0 0 0 0 0 0 0 0 0 0 0 0 0 0 0 0 0 0 0 0 0 0 0 0 0 0 0 0 0 0 0 0 0 0 0 0
0 0 0 0 0 0 0 0 0 0 0 0 0 0 0 0 0 0 0 0 0 0 0 0 0 0 0 0 0 0 0 0 0 0 0 0 0 0 0 0 0 0 0 0 0 0 0 0 0 0 0 0 0 0
0 0 0 0 0 0 0 0 0 0 0 0 0 0 0 0 0 0 0 0 0 0 0 0 0 0 0 0 0 0 0 0 0 0 0 0 0 0 0 0 0 0 0 0 0 0 0 -0 0 0 0 0 0 0
0 0 0 0 0 0 0 0 0 0 0 0 0 0 0 0 0 0 0 0 0 0 0 0 0 0 0 0 0 0 0 0 0 0 0 0 0 0 0 0 0 0 0 0 0 0 0 0 0 0 0 0 0 0
0 0 0 0 0 0 0 0 0 0 0 0 0 0 0 0 0 0 0 0 0 0 0 0 0 0 0 0 0 0 0 0 0 0 0 0 0 0 0 0 0 0 0 0 0 0 0 0 0 0 0 0 0 0
0 0 0 0 0 0 0 0 0 0 0 0 0 0 0 0 0 0 0 0 0 0 0 0 0 0 0 0 0 0 0 0 0 0 0 0 0 0 0 0 0 0 0 0 0 0 0 0 0 0 0 0 0 0
0 0 0 0 0 0 0 0 0 0 0 0 0 0 0 0 0 0 0 0 0 0 0 0 0 0 0 0 0 0 0 0 0 0 0 0 0 0 0 0 0 0 0 0 0 0 0 0 0 0 0 0 0 0
0 0 0 0 0 0 0 0 0 0 0 0 0 0 0 0 0 0 0 0 -0 -0 -0 -0 0 0 0 0 0 0 0 0 0 0 0 0 0 0 0 0 0 0 0 0 0 0 0 0 0 0 0 0 0 0
0 0 0 0 0 0 0 0 0 0 0 0 0 0 0 0 0 0 0 -0 0 -0 -0 -0 0 0 0 0 0 0 0 0 0 0 0 0 0 0 0 0 0 0 0 0 -0 -0 -0 -0 -0 -0 0 0 0 0
0 0 0 0 0 0 0 0 0 0 0 0 0 0 0 0 0 0 0 0 0 0 0 0 0 0 0 0 0 0 0 0 0 0 0 0 0 0 0 0 0 0 -0 0 0 0 -0 -0 -0 0 0 0 0 0
0 0 0 0 0 0 0 0 0 0 0 0 0 0 0 0 0 0 0 0 0 0 0 0 0 0 0 0 0 0 0 0 0 0 0 0 0 0 0 0 0 0 0 0 0 0 0 0 0 0 0 0 0 0
0 0 0 0 0 0 0 0 0 0 0 0 0 0 0 0 0 0 0 0 0 0 0 0 0 0 0 0 0 0 0 0 0 0 0 0 0 0 0 0 0 0 0 0 0 0 0 0 0 0 0 0 0 0
0 0 0 0 0 0 0 0 0 0 0 0 0 0 0 0 0 0 0 0 0 0 0 0 0 0 0 0 0 0 0 0 0 0 0 0 0 0 0 0 0 0 0 0 0 0 0 0 0 0 0 0 0 0
0 0 0 0 0 0 0 0 0 0 0 0 0 0 0 0 0 0 0 0 0 0 0 0 0 0 0 0 0 0 0 0 0 0 0 0 0 0 0 0 0 0 0 0 0 0 0 0 0 0 0 0 0 0
0 0 0 0 0 0 0 0 0 0 0 0 0 0 0 0 0 0 0 0 0 0 0 0 0 0 0 0 0 0 0 0 0 0 0 0 0 0 0 0 0 0 0 0 0 0 0 0 0 0 0 0 0 0
0 0 0 0 0 0 0 0 0 0 0 0 0 0 0 0 0 0 0 0 0 0 0 0 0 0 0 0 0 0 0 0 0 0 0 0 0 0 0 0 0 -0 -0 -0 -0 0 0 0 0 0 0 0 0 0
0 0 0 0 0 0 0 0 0 0 0 0 0 0 0 0 0 0 0 0 0 0 0 0 0 0 0 0 0 0 0 0 0 0 0 0 0 0 0 0 0 -0 -0 -0 0 0 0 0 0 0 0 0 0 0
0 0 0 0 0 0 0 0 0 0 0 0 0 0 0 0 0 0 0 0 0 0 0 0 0 0 0 0 0 0 0 0 0 0 0 0 0 -0 0 0 0 0 -0 -0 -0 0 0 0 0 0 0 0 -0 -0
0 0 0 0 0 0 0 0 0 0 0 0 0 0 0 0 0 0 0 0 0 0 0 0 0 0 0 0 0 0 0 0 0 0 0 0 0 0 0 -0 -0 0 -0 -0 -0 -0 -0 0 0 0 -0 -0 -0 -0
0 0 0 0 0 0 0 0 0 0 0 0 0 0 0 0 0 0 0 0 0 0 0 0 0 0 0 0 0 0 0 0 0 0 0 0 0 0 0 0 -0 -0 -0 -0 -0 -0 -0 -0 -0 -0 -0 -0 -0 -0
0 0 0 0 0 0 0 0 0 0 0 0 0 0 0 0 0 0 0 0 0 0 0 0 0 0 0 0 0 0 0 0 -0 -0 -0 -0 -0 -0 0 -0 -0 -0 -0 -0 -0 -0 -0 -0 0 0 -0 -0 -0 -0
0 0 0 0 0 0 0 0 0 0 0 0 0 0 0 0 0 0 0 0 0 0 0 0 0 0 0 0 0 0 0 0 0 0 0 -0 -0 -0 -0 -0 -0 -0 -0 -0 -0 -0 -0 -0 0 0 0 0 -0 -0
0 0 0 0 0 0 0 0 0 0 0 0 0 0 0 0 0 0 0 0 0 0 0 0 0 0 0 0 0 0 -0 -0 -0 0 0 0 0 0 0 -0 -0 -0 -0 -0 -0 -0 -0 -0 -0 -0 -0 -0 -0 -0
0 0 0 0 0 0 0 0 0 0 0 0 0 0 0 0 0 0 0 0 0 0 0 0 0 0 0 0 0 0 0 0 0 0 0 0 0 0 0 0 -0 -0 -0 -0 -0 -0 -0 -0 -0 -0 0 -0 -0 -0
0 0 0 0 0 0 0 0 0 0 0 0 0 0 0 0 0 0 0 0 0 0 0 0 0 0 0 0 0 0 0 0 0 0 0 0 0 -0 -0 0 -0 -0 -0 -0 0 0 0 0 0 0 0 0 0 0
Wind_Speed_500mb
28 25 26 27 23 23 28 30 34 25 27 30 31 31 30 29 28 31 34 28 23 12 26 39 31 23 15 14 8 16 10 7 8 14 11 9 11 12 5 8 15 22 23 14 18 16 25 37 26 15 1 4 5 17
21 21 22 29 31 30 26 28 32 34 36 36 35 35 35 35 31 33 43 41 40 37 37 46 53 60 51 50 29 35 5 15 22 10 9 4 9 7 10 9 20 11 17 13 25 17 4 56 21 31 36 31 34 42
24 26 23 20 26 30 34 35 34 39 34 35 34 33 34 34 34 37 46 44 42 40 60 68 65 51 62 70 70 41 27 31 21 21 14 7 15 10 12 16 15 17 25 8 1 21 39 51 61 65 70 62 60 52
24 26 28 31 35 33 30 28 29 31 34 34 36 37 36 35 37 41 47 53 50 28 17 28 36 53 58 53 56 78 69 34 33 38 15 10 10 27 10 11 17 15 27 14 27 43 52 63 62 62 58 58 56 53
23 25 25 27 28 30 33 34 36 39 40 41 40 39 36 29 31 43 55 63 60 55 17 19 30 40 47 48 52 59 72 67 31 19 13 14 18 13 12 9 27 30 21 17 26 54 38 44 37 32 46 49 60 65
31 33 35 36 38 36 32 30 33 35 36 40 41 44 50 54 55 54 37 53 55 57 28 13 22 33 46 67 74 68 73 71 59 31 21 27 33 30 10 17 34 35 58 77 71 73 61 63 68 56 57 69 61 58
26 28 32 34 35 34 35 37 36 36 38 40 43 43 42 42 38 40 17 8 9 30 23 12 14 17 55 51 53 53 58 48 45 45 34 43 27 36 14 38 48 33 36 41 58 59 65 65 48 42 51 64 70 82
19 17 18 18 19 19 22 22 24 25 26 28 32 33 35 36 43 57 66 72 64 47 23 10 8 7 19 17 18 40 31 41 33 32 26 28 33 28 22 37 48 28 38 51 37 34 36 46 49 55 56 65 71 69
22 23 23 26 30 31 32 33 33 31 34 34 37 44 50 48 43 52 47 51 54 48 15 15 27 35 24 20 23 17 24 11 12 10 17 18 17 16 9 13 19 21 16 29 41 40 38 42 48 57 59 52 50 57
23 26 29 31 32 34 36 37 35 33 33 36 42 21 12 13 28 28 20 15 23 33 36 21 52 28 18 22 18 15 12 8 9 12 10 10 19 26 24 18 15 19 20 25 27 25 36 39 40 43 46 45 46 49
33 33 35 36 38 37 38 40 39 38 39 35 15 16 24 21 16 13 11 14 19 10 5 5 11 22 19 8 8 20 8 7 8 6 10 11 5 9 20 22 19 22 24 23 22 22 26 32 41 48 49 45 43 46
43 46 43 43 41 40 43 47 42 37 32 19 22 40 41 12 15 12 9 6 8 3 2 3 4 3 5 4 5 2 4 1 8 5 4 4 7 17 23 26 29 29 30 30 31 36 38 36 40 46 48 50 45 41
47 48 48 43 42 43 51 37 28 29 34 33 13 10 10 13 15 13 12 6 4 5 3 7 4 2 3 2 4 4 7 3 2 4 2 6 14 22 27 35 40 36 37 39 41 43 46 46 42 46 51 46 48 46
52 45 45 45 41 50 41 34 31 29 19 15 14 12 11 10 8 3 3 6 8 8 5 7 9 5 2 4 2 7 3 3 6 7 3 7 22 26 32 39 44 44 47 54 55 55 54 54 55 49 51 51 51 50
44 33 33 43 44 30 19 14 10 11 10 9 9 10 7 7 9 7 10 8 9 6 8 9 10 6 5 7 7 3 4 8 4 4 5 19 25 37 40 48 48 54 57 58 57 58 58 59 62 63 58 54 49 49
33 31 30 23 18 21 11 4 4 7 8 12 11 9 1 5 7 7 11 6 9 12 3 7 6 5 8 6 7 6 7 2 5 5 21 25 32 37 46 50 52 52 54 58 58 59 60 59 60 62 61 56 48 46
36 30 18 21 22 9 11 12 7 10 9 8 3 2 3 6 5 2 5 6 15 5 3 3 9 10 5 7 5 7 6 6 16 22 23 28 34 44 48 49 48 51 55 55 54 52 52 49 49 54 57 54 48 48
24 20 22 25 19 19 22 15 12 8 4 1 2 2 7 7 4 5 12 13 7 6 6 2 8 4 3 4 4 5 7 17 18 22 29 36 35 36 39 45 47 49 50 51 50 51 51 52 54 55 54 53 53 49
18 28 25 17 13 14 8 8 4 7 5 6 9 9 8 11 16 14 10 8 10 7 4 6 7 4 4 5 8 14 16 18 25 29 32 28 32 37 40 42 44 45 46 47 49 51 52 50 51 52 54 54 54 53
30 22 15 12 12 12 6 5 5 8 6 5 7 6 7 7 5 12 15 12 9 7 10 6 4 4 5 9 11 13 16 18 20 24 24 27 33 40 40 43 46 48 48 48 49 51 53 54 51 51 51 49 50 52
21 19 10 7 10 6 8 7 8 8 8 6 9 6 5 8 6 8 10 11 10 8 5 5 4 4 9 11 13 14 15 17 16 17 23 34 38 42 42 42 46 47 50 53 56 57 56 54 54 54 55 53 48 47
11 10 11 9 6 7 9 10 9 8 6 8 5 5 5 4 6 7 7 11 7 5 2 2 6 7 6 6 9 11 14 13 13 15 19 27 35 42 44 44 45 49 50 52 55 58 60 55 51 53 53 52 47 46
16 12 8 7 7 7 5 6 4 6 3 4 3 4 5 4 4 4 6 5 4 3 5 3 2 3 4 6 8 11 15 17 15 16 20 25 29 34 40 43 42 46 52 55 55 59 61 56 53 53 51 48 47 47
13 7 9 9 13 5 4 8 7 6 6 5 4 4 4 6 8 5 4 2 2 4 2 4 6 8 6 9 16 19 22 21 19 16 22 28 33 36 39 44 42 42 44 53 54 55 57 59 57 58 54 52 51 51
7 18 12 11 15 9 9 6 9 6 5 3 2 3 2 7 2 2 1 3 2 3 6 6 5 5 6 9 14 18 23 25 29 21 25 29 33 39 45 49 50 47 52 58 62 63 60 59 62 66 64 55 54 49
13 18 10 10 10 7 6 4 6 5 3 3 3 5 5 1 2 1 2 3 5 5 4 2 2 4 7 10 14 18 23 23 28 26 21 31 36 39 46 55 60 59 58 57 59 63 62 60 63 64 62 58 49 45
10 9 11 13 6 4 6 7 5 1 5 6 4 6 4 3 3 2 5 1 5 4 3 1 3 4 7 10 12 17 22 27 32 32 35 29 34 41 39 49 55 58 58 58 57 55 58 59 61 58 59 54 46 43
10 17 4 15 7 8 5 2 4 5 3 5 7 4 4 2 3 2 4 5 6 5 2 2 4 7 9 13 19 26 31 38 43 48 54 52 49 47 46 56 57 57 59 56 55 54 50 50 53 50 51 48 44 38
9 24 12 11 5 8 9 7 5 7 7 5 3 3 2 3 4 6 7 7 6 4 4 6 9 11 11 17 24 33 42 51 60 65 67 70 75 68 65 67 67 64 61 60 54 49 47 43 43 42 41 41 39 36
15 26 9 9 5 5 6 11 11 15 11 8 9 7 6 7 7 5 5 9 11 10 12 14 15 18 24 34 43 48 53 61 63 60 62 69 73 73 70 70 68 62 54 53 54 53 46 42 37 34 36 37 38 38
17 16 8 6 2 3 13 18 11 8 9 7 1 3 4 5 3 2 2 3 6 10 17 24 30 36 41 48 54 63 74 71 68 65 61 61 62 63 63 63 60 56 47 45 46 49 50 48 44 40 38 37 36 37
13 10 8 4 3 11 10 17 10 6 8 4 1 2 2 4 5 5 8 10 14 23 30 36 41 50 58 67 70 68 72 74 66 62 65 63 62 61 60 58 53 46 40 40 43 46 47 47 46 42 41 39 37 38
8 10 8 8 6 6 11 19 11 8 2 2 3 2 3 4 6 5 4 6 20 26 32 43 46 52 63 70 66 69 67 63 57 58 59 56 55 54 56 55 50 45 43 44 45 47 48 47 46 44 42 40 39 38
Wind_Direction_500mb
245 245 252 260 258 265 270 269 275 263 265 271 271 270 267 266 261 266 268 266 263 256 265 263 244 213 182 194 184 150 135 177 177 202 213 204 226 200 241 167 180 177 178 193 208 230 261 187 149 213 73 192 210 296
247 257 261 263 262 269 267 266 270 266 267 269 268 265 263 260 257 251 263 258 263 249 254 272 271 267 256 243 233 191 266 158 181 199 212 204 209 196 234 244 194 219 210 189 202 213 79 182 214 234 269 275 284 295
258 260 258 261 260 262 265 265 269 276 276 268 269 269 267 262 258 247 257 263 256 253 273 263 257 277 260 251 246 226 230 224 199 197 174 209 232 162 202 232 198 224 223 251 323 226 240 238 247 261 272 272 285 283
259 263 270 272 270 266 263 264 266 268 266 265 265 265 265 263 258 256 251 252 252 255 263 266 266 258 268 263 244 231 231 231 231 216 201 213 218 195 229 262 237 228 153 214 253 271 272 273 268 272 274 275 278 281
254 257 260 260 264 267 266 265 266 269 270 270 270 269 265 260 262 260 256 252 251 235 268 273 266 254 254 258 250 234 226 223 204 185 215 225 232 202 225 258 253 207 215 219 250 261 263 280 292 293 290 286 285 287
261 263 263 264 265 269 270 270 269 269 269 270 270 272 273 273 275 280 288 268 264 256 256 265 275 267 243 245 245 240 229 221 215 216 226 234 230 191 238 249 256 234 227 230 247 266 273 281 284 285 284 285 290 286
263 264 265 267 270 271 273 275 275 275 276 275 276 276 277 271 265 250 237 226 206 262 249 262 257 253 236 228 223 223 224 215 217 225 234 236 220 204 239 249 256 251 251 247 250 268 269 269 279 286 289 292 294 294
280 280 291 291 290 283 284 285 291 295 295 291 289 286 281 273 263 258 256 254 262 270 255 253 245 208 187 175 203 206 206 213 223 228 234 225 238 212 240 256 264 271 263 264 271 280 290 300 298 298 298 299 300 299
286 281 278 281 283 285 283 283 281 287 288 290 288 281 280 270 265 262 259 252 243 233 253 238 242 267 199 208 204 194 204 220 217 235 226 216 226 220 348 353 5 354 347 310 306 314 309 308 311 306 307 313 311 307
301 294 288 286 285 287 289 288 287 291 285 285 283 294 261 225 240 264 270 222 209 215 230 250 252 258 219 181 202 178 199 230 230 213 177 223 247 87 44 41 20 2 352 346 352 344 335 333 330 328 325 323 318 314
296 293 292 291 289 289 282 280 278 277 277 278 252 234 252 257 255 243 245 225 200 220 217 323 265 264 244 236 228 205 193 207 232 179 214 201 170 52 27 29 19 12 9 4 358 346 342 341 338 337 336 334 328 321
291 289 289 286 286 288 289 282 279 275 270 252 281 289 290 265 229 225 219 202 228 280 58 349 356 337 327 302 282 74 271 268 247 347 267 217 65 31 15 8 3 358 353 347 346 339 338 339 338 334 333 331 328 322
295 288 281 285 282 288 286 278 264 270 275 278 265 252 205 198 231 216 212 202 227 165 74 15 25 313 282 312 253 250 244 252 316 229 213 56 40 10 358 352 351 349 344 340 335 329 328 327 326 325 322 323 321 319
293 286 281 282 284 284 277 274 277 276 231 216 212 231 211 202 236 296 320 51 60 31 34 345 313 286 269 249 236 249 76 253 241 234 143 58 12 346 344 344 340 341 333 332 330 327 324 322 318 316 313 314 312 310
286 283 286 293 291 276 245 200 190 200 200 230 214 239 228 93 63 75 61 96 24 356 335 297 267 263 217 242 208 118 200 253 280 30 56 351 338 335 335 335 334 330 330 329 328 325 323 319 316 310 307 304 303 301
288 287 293 294 224 208 187 215 290 252 222 216 241 268 147 263 114 30 23 65 339 332 270 231 273 278 250 260 182 218 266 269 71 357 328 328 327 328 327 329 328 330 328 326 325 324 321 319 315 309 308 304 299 295
288 276 269 254 271 311 282 275 236 221 234 215 175 290 58 67 77 65 8 328 327 338 259 251 222 224 318 243 149 29 31 11 344 329 322 319 324 327 328 327 330 329 327 327 325 325 323 323 321 320 318 318 310 302
279 283 238 232 245 274 273 236 213 213 103 19 253 37 79 76 56 32 1 345 358 328 329 23 333 334 10 340 73 32 337 318 316 314 315 323 330 332 332 329 331 332 334 337 335 334 336 332 328 327 325 325 320 320
266 194 204 252 259 239 226 197 201 112 96 96 94 86 93 101 66 43 29 69 71 67 89 46 60 51 41 38 340 328 327 326 321 318 323 340 343 343 342 342 341 344 340 342 341 339 338 338 337 336 332 330 325 325
202 214 278 262 235 203 179 86 100 95 104 126 106 92 101 97 110 50 45 59 69 51 54 49 64 35 336 326 320 315 317 320 324 326 333 347 354 353 355 352 351 351 349 347 345 345 343 343 346 341 337 333 327 323
248 263 258 201 167 137 99 99 75 91 110 112 119 110 105 88 62 47 30 39 60 40 79 72 40 339 315 315 321 328 332 334 335 328 326 339 355 357 357 356 357 357 358 356 351 349 349 343 340 341 337 336 332 327
223 183 132 121 99 85 82 63 98 103 111 119 91 79 67 67 41 22 33 52 69 63 80 338 334 338 354 347 345 346 345 345 348 351 353 353 352 358 3 2 355 358 358 357 353 348 348 346 344 342 340 337 337 334
134 128 91 75 93 66 75 65 78 47 85 59 66 94 55 54 23 37 75 74 110 12 340 321 344 40 58 49 35 28 22 18 13 5 2 2 4 6 9 10 6 359 353 352 353 347 349 351 348 345 343 344 344 340
114 73 46 50 37 66 62 45 52 58 60 33 29 78 44 353 351 62 89 103 134 3 45 99 132 125 87 47 32 22 18 16 12 4 352 349 353 360 6 5 5 5 357 352 354 350 351 353 353 353 349 345 346 342
93 16 27 19 27 35 36 23 5 46 71 18 36 46 55 353 64 59 143 157 171 113 119 115 90 70 54 38 31 23 16 13 9 3 2 355 353 358 2 5 8 7 359 353 355 354 354 354 354 349 346 346 339 337
70 16 40 3 8 34 5 52 38 30 25 42 42 339 6 5 69 230 183 175 190 165 152 128 55 19 9 16 17 19 22 18 14 13 358 359 354 350 351 351 352 357 357 355 350 349 349 353 353 342 349 350 346 342
56 357 15 27 23 48 86 71 70 27 53 24 358 359 29 40 297 271 181 200 192 220 261 325 31 26 14 8 3 359 355 354 353 347 343 328 336 338 334 342 341 341 344 347 348 346 345 346 349 345 344 345 350 349
72 23 15 345 24 33 109 68 43 32 12 5 335 1 359 348 6 252 218 246 245 242 212 61 11 353 348 346 345 343 340 338 335 332 329 326 325 328 326 329 329 329 329 335 339 341 340 341 343 343 344 345 347 350
32 355 2 15 51 52 45 35 22 10 353 320 288 281 317 261 278 278 252 240 206 206 235 280 299 303 316 330 328 334 336 336 334 330 325 319 319 320 319 319 322 323 322 322 327 333 335 334 335 342 345 349 351 352
358 356 11 13 54 50 24 358 333 324 323 283 265 283 279 292 304 300 261 230 229 254 271 276 280 291 305 314 317 318 325 331 332 327 317 312 312 313 314 317 319 320 317 317 321 325 327 327 325 330 343 350 352 353
349 349 335 5 46 38 347 348 356 360 2 1 259 237 290 306 290 264 269 246 260 278 293 297 299 302 302 309 316 322 325 329 328 324 318 310 308 309 311 314 317 316 312 314 320 325 327 327 328 326 329 336 343 346
335 356 339 330 352 348 352 360 356 353 11 34 40 341 281 298 289 286 287 288 323 328 330 320 317 315 314 309 308 309 315 320 316 318 321 315 310 309 310 312 315 312 306 311 318 321 323 323 323 322 320 321 325 330
315 335 348 325 315 4 348 348 15 359 6 17 20 293 263 284 276 281 342 30 350 343 337 328 312 313 322 324 313 310 312 313 314 318 321 316 313 312 310 312 311 307 303 302 309 315 317 317 316 318 317 314 313 315
Wind_Speed_850mb
28 25 26 27 23 23 28 30 34 25 27 30 31 31 30 29 28 31 34 28 23 12 26 39 31 23 15 14 8 16 10 7 8 14 11 9 11 12 5 8 15 22 23 14 18 16 25 37 26 15 1 4 5 17
21 21 22 29 31 30 26 28 32 34 36 36 35 35 35 35 31 33 43 41 40 37 37 46 53 60 51 50 29 35 5 15 22 10 9 4 9 7 10 9 20 11 17 13 25 17 4 56 21 31 36 31 34 42
24 26 23 20 26 30 34 35 34 39 34 35 34 33 34 34 34 37 46 44 42 40 60 68 65 51 62 70 70 41 27 31 21 21 14 7 15 10 12 16 15 17 25 8 1 21 39 51 61 65 70 62 60 52
24 26 28 31 35 33 30 28 29 31 34 34 36 37 36 35 37 41 47 53 50 28 17 28 36 53 58 53 56 78 69 34 33 38 15 10 10 27 10 11 17 15 27 14 27 43 52 63 62 62 58 58 56 53
23 25 25 27 28 30 33 34 36 39 40 41 40 39 36 29 31 43 55 63 60 55 17 19 30 40 47 48 52 59 72 67 31 19 13 14 18 13 12 9 27 30 21 17 26 54 38 44 37 32 46 49 60 65
31 33 35 36 38 36 32 30 33 35 36 40 41 44 50 54 55 54 37 53 55 57 28 13 22 33 46 67 74 68 73 71 59 31 21 27 33 30 10 17 34 35 58 77 71 73 61 63 68 56 57 69 61 58
26 28 32 34 35 34 35 37 36 36 38 40 43 43 42 42 38 40 17 8 9 30 23 12 14 17 55 51 53 53 58 48 45 45 34 43 27 36 14 38 48 33 36 41 58 59 65 65 48 42 51 64 70 82
19 17 18 18 19 19 22 22 24 25 26 28 32 33 35 36 43 57 66 72 64 47 23 10 8 7 19 17 18 40 31 41 33 32 26 28 33 28 22 37 48 28 38 51 37 34 36 46 49 55 56 65 71 69
22 23 23 26 30 31 32 33 33 31 34 34 37 44 50 48 43 52 47 51 54 48 15 15 27 35 24 20 23 17 24 11 12 10 17 18 17 16 9 13 19 21 16 29 41 40 38 42 48 57 59 52 50 57
23 26 29 31 32 34 36 37 35 33 33 36 42 21 12 13 28 28 20 15 23 33 36 21 52 28 18 22 18 15 12 8 9 12 10 10 19 26 24 18 15 19 20 25 27 25 36 39 40 43 46 45 46 49
33 33 35 36 38 37 38 40 39 38 39 35 15 16 24 21 16 13 11 14 19 10 5 5 11 22 19 8 8 20 8 7 8 6 10 11 5 9 20 22 19 22 24 23 22 22 26 32 41 48 49 45 43 46
43 46 43 43 41 40 43 47 42 37 32 19 22 40 41 12 15 12 9 6 8 3 2 3 4 3 5 4 5 2 4 1 8 5 4 4 7 17 23 26 29 29 30 30 31 36 38 36 40 46 48 50 45 41
47 48 48 43 42 43 51 37 28 29 34 33 13 10 10 13 15 13 12 6 4 5 3 7 4 2 3 2 4 4 7 3 2 4 2 6 14 22 27 35 40 36 37 39 41 43 46 46 42 46 51 46 48 46
52 45 45 45 41 50 41 34 31 29 19 15 14 12 11 10 8 3 3 6 8 8 5 7 9 5 2 4 2 7 3 3 6 7 3 7 22 26 32 39 44 44 47 54 55 55 54 54 55 49 51 51 51 50
44 33 33 43 44 30 19 14 10 11 10 9 9 10 7 7 9 7 10 8 9 6 8 9 10 6 5 7 7 3 4 8 4 4 5 19 25 37 40 48 48 54 57 58 57 58 58 59 62 63 58 54 49 49
33 31 30 23 18 21 11 4 4 7 8 12 11 9 1 5 7 7 11 6 9 12 3 7 6 5 8 6 7 6 7 2 5 5 21 25 32 37 46 50 52 52 54 58 58 59 60 59 60 62 61 56 48 46
36 30 18 21 22 9 11 12 7 10 9 8 3 2 3 6 5 2 5 6 15 5 3 3 9 10 5 7 5 7 6 6 16 22 23 28 34 44 48 49 48 51 55 55 54 52 52 49 49 54 57 54 48 48
24 20 22 25 19 19 22 15 12 8 4 1 2 2 7 7 4 5 12 13 7 6 6 2 8 4 3 4 4 5 7 17 18 22 29 36 35 36 39 45 47 49 50 51 50 51 51 52 54 55 54 53 53 49
18 28 25 17 13 14 8 8 4 7 5 6 9 9 8 11 16 14 10 8 10 7 4 6 7 4 4 5 8 14 16 18 25 29 32 28 32 37 40 42 44 45 46 47 49 51 52 50 51 52 54 54 54 53
30 22 15 12 12 12 6 5 5 8 6 5 7 6 7 7 5 12 15 12 9 7 10 6 4 4 5 9 11 13 16 18 20 24 24 27 33 40 40 43 46 48 48 48 49 51 53 54 51 51 51 49 50 52
21 19 10 7 10 6 8 7 8 8 8 6 9 6 5 8 6 8 10 11 10 8 5 5 4 4 9 11 13 14 15 17 16 17 23 34 38 42 42 42 46 47 50 53 56 57 56 54 54 54 55 53 48 47
11 10 11 9 6 7 9 10 9 8 6 8 5 5 5 4 6 7 7 11 7 5 2 2 6 7 6 6 9 11 14 13 13 15 19 27 35 42 44 44 45 49 50 52 55 58 60 55 51 53 53 52 47 46
16 12 8 7 7 7 5 6 4 6 3 4 3 4 5 4 4 4 6 5 4 3 5 3 2 3 4 6 8 11 15 17 15 16 20 25 29 34 40 43 42 46 52 55 55 59 61 56 53 53 51 48 47 47
13 7 9 9 13 5 4 8 7 6 6 5 4 4 4 6 8 5 4 2 2 4 2 4 6 8 6 9 16 19 22 21 19 16 22 28 33 36 39 44 42 42 44 53 54 55 57 59 57 58 54 52 51 51
7 18 12 11 15 9 9 6 9 6 5 3 2 3 2 7 2 2 1 3 2 3 6 6 5 5 6 9 14 18 23 25 29 21 25 29 33 39 45 49 50 47 52 58 62 63 60 59 62 66 64 55 54 49
13 18 10 10 10 7 6 4 6 5 3 3 3 5 5 1 2 1 2 3 5 5 4 2 2 4 7 10 14 18 23 23 28 26 21 31 36 39 46 55 60 59 58 57 59 63 62 60 63 64 62 58 49 45
10 9 11 13 6 4 6 7 5 1 5 6 4 6 4 3 3 2 5 1 5 4 3 1 3 4 7 10 12 17 22 27 32 32 35 29 34 41 39 49 55 58 58 58 57 55 58 59 61 58 59 54 46 43
10 17 4 15 7 8 5 2 4 5 3 5 7 4 4 2 3 2 4 5 6 5 2 2 4 7 9 13 19 26 31 38 43 48 54 52 49 47 46 56 57 57 59 56 55 54 50 50 53 50 51 48 44 38
9 24 12 11 5 8 9 7 5 7 7 5 3 3 2 3 4 6 7 7 6 4 4 6 9 11 11 17 24 33 42 51 60 65 67 70 75 68 65 67 67 64 61 60 54 49 47 43 43 42 41 41 39 36
15 26 9 9 5 5 6 11 11 15 11 8 9 7 6 7 7 5 5 9 11 10 12 14 15 18 24 34 43 48 53 61 63 60 62 69 73 73 70 70 68 62 54 53 54 53 46 42 37 34 36 37 38 38
17 16 8 6 2 3 13 18 11 8 9 7 1 3 4 5 3 2 2 3 6 10 17 24 30 36 41 48 54 63 74 71 68 65 61 61 62 63 63 63 60 56 47 45 46 49 50 48 44 40 38 37 36 37
13 10 8 4 3 11 10 17 10 6 8 4 1 2 2 4 5 5 8 10 14 23 30 36 41 50 58 67 70 68 72 74 66 62 65 63 62 61 60 58 53 46 40 40 43 46 47 47 46 42 41 39 37 38
8 10 8 8 6 6 11 19 11 8 2 2 3 2 3 4 6 5 4 6 20 26 32 43 46 52 63 70 66 69 67 63 57 58 59 56 55 54 56 55 50 45 43 44 45 47 48 47 46 44 42 40 39 38
Wind_Direction_850mb
245 245 252 260 258 265 270 269 275 263 265 271 271 270 267 266 261 266 268 266 263 256 265 263 244 213 182 194 184 150 135 177 177 202 213 204 226 200 241 167 180 177 178 193 208 230 261 187 149 213 73 192 210 296
247 257 261 263 262 269 267 266 270 266 267 269 268 265 263 260 257 251 263 258 263 249 254 272 271 267 256 243 233 191 266 158 181 199 212 204 209 196 234 244 194 219 210 189 202 213 79 182 214 234 269 275 284 295
258 260 258 261 260 262 265 265 269 276 276 268 269 269 267 262 258 247 257 263 256 253 273 263 257 277 260 251 246 226 230 224 199 197 174 209 232 162 202 232 198 224 223 251 323 226 240 238 247 261 272 272 285 283
259 263 270 272 270 266 263 264 266 268 266 265 265 265 265 263 258 256 251 252 252 255 263 266 266 258 268 263 244 231 231 231 231 216 201 213 218 195 229 262 237 228 153 214 253 271 272 273 268 272 274 275 278 281
254 257 260 260 264 267 266 265 266 269 270 270 270 269 265 260 262 260 256 252 251 235 268 273 266 254 254 258 250 234 226 223 204 185 215 225 232 202 225 258 253 207 215 219 250 261 263 280 292 293 290 286 285 287
261 263 263 264 265 269 270 270 269 269 269 270 270 272 273 273 275 280 288 268 264 256 256 265 275 267 243 245 245 240 229 221 215 216 226 234 230 191 238 249 256 234 227 230 247 266 273 281 284 285 284 285 290 286
263 264 265 267 270 271 273 275 275 275 276 275 276 276 277 271 265 250 237 226 206 262 249 262 257 253 236 228 223 223 224 215 217 225 234 236 220 204 239 249 256 251 251 247 250 268 269 269 279 286 289 292 294 294
280 280 291 291 290 283 284 285 291 295 295 291 289 286 281 273 263 258 256 254 262 270 255 253 245 208 187 175 203 206 206 213 223 228 234 225 238 212 240 256 264 271 263 264 271 280 290 300 298 298 298 299 300 299
286 281 278 281 283 285 283 283 281 287 288 290 288 281 280 270 265 262 259 252 243 233 253 238 242 267 199 208 204 194 204 220 217 235 226 216 226 220 348 353 5 354 347 310 306 314 309 308 311 306 307 313 311 307
301 294 288 286 285 287 289 288 287 291 285 285 283 294 261 225 240 264 270 222 209 215 230 250 252 258 219 181 202 178 199 230 230 213 177 223 247 87 44 41 20 2 352 346 352 344 335 333 330 328 325 323 318 314
296 293 292 291 289 289 282 280 278 277 277 278 252 234 252 257 255 243 245 225 200 220 217 323 265 264 244 236 228 205 193 207 232 179 214 201 170 52 27 29 19 12 9 4 358 346 342 341 338 337 336 334 328 321
291 289 289 286 286 288 289 282 279 275 270 252 281 289 290 265 229 225 219 202 228 280 58 349 356 337 327 302 282 74 271 268 247 347 267 217 65 31 15 8 3 358 353 347 346 339 338 339 338 334 333 331 328 322
295 288 281 285 282 288 286 278 264 270 275 278 265 252 205 198 231 216 212 202 227 165 74 15 25 313 282 312 253 250 244 252 316 229 213 56 40 10 358 352 351 349 344 340 335 329 328 327 326 325 322 323 321 319
293 286 281 282 284 284 277 274 277 276 231 216 212 231 211 202 236 296 320 51 60 31 34 345 313 286 269 249 236 249 76 253 241 234 143 58 12 346 344 344 340 341 333 332 330 327 324 322 318 316 313 314 312 310
286 283 286 293 291 276 245 200 190 200 200 230 214 239 228 93 63 75 61 96 24 356 335 297 267 263 217 242 208 118 200 253 280 30 56 351 338 335 335 335 334 330 330 329 328 325 323 319 316 310 307 304 303 301
288 287 293 294 224 208 187 215 290 252 222 216 241 268 147 263 114 30 23 65 339 332 270 231 273 278 250 260 182 218 266 269 71 357 328 328 327 328 327 329 328 330 328 326 325 324 321 319 315 309 308 304 299 295
288 276 269 254 271 311 282 275 236 221 234 215 175 290 58 67 77 65 8 328 327 338 259 251 222 224 318 243 149 29 31 11 344 329 322 319 324 327 328 327 330 329 327 327 325 325 323 323 321 320 318 318 310 302
279 283 238 232 245 274 273 236 213 213 103 19 253 37 79 76 56 32 1 345 358 328 329 23 333 334 10 340 73 32 337 318 316 314 315 323 330 332 332 329 331 332 334 337 335 334 336 332 328 327 325 325 320 320
266 194 204 252 259 239 226 197 201 112 96 96 94 86 93 101 66 43 29 69 71 67 89 46 60 51 41 38 340 328 327 326 321 318 323 340 343 343 342 342 341 344 340 342 341 339 338 338 337 336 332 330 325 325
202 214 278 262 235 203 179 86 100 95 104 126 106 92 101 97 110 50 45 59 69 51 54 49 64 35 336 326 320 315 317 320 324 326 333 347 354 353 355 352 351 351 349 347 345 345 343 343 346 341 337 333 327 323
248 263 258 201 167 137 99 99 75 91 110 112 119 110 105 88 62 47 30 39 60 40 79 72 40 339 315 315 321 328 332 334 335 328 326 339 355 357 357 356 357 357 358 356 351 349 349 343 340 341 337 336 332 327
223 183 132 121 99 85 82 63 98 103 111 119 91 79 67 67 41 22 33 52 69 63 80 338 334 338 354 347 345 346 345 345 348 351 353 353 352 358 3 2 355 358 358 357 353 348 348 346 344 342 340 337 337 334
134 128 91 75 93 66 75 65 78 47 85 59 66 94 55 54 23 37 75 74 110 12 340 321 344 40 58 49 35 28 22 18 13 5 2 2 4 6 9 10 6 359 353 352 353 347 349 351 348 345 343 344 344 340
114 73 46 50 37 66 62 45 52 58 60 33 29 78 44 353 351 62 89 103 134 3 45 99 132 125 87 47 32 22 18 16 12 4 352 349 353 360 6 5 5 5 357 352 354 350 351 353 353 353 349 345 346 342
93 16 27 19 27 35 36 23 5 46 71 18 36 46 55 353 64 59 143 157 171 113 119 115 90 70 54 38 31 23 16 13 9 3 2 355 353 358 2 5 8 7 359 353 355 354 354 354 354 349 346 346 339 337
70 16 40 3 8 34 5 52 38 30 25 42 42 339 6 5 69 230 183 175 190 165 152 128 55 19 9 16 17 19 22 18 14 13 358 359 354 350 351 351 352 357 357 355 350 349 349 353 353 342 349 350 346 342
56 357 15 27 23 48 86 71 70 27 53 24 358 359 29 40 297 271 181 200 192 220 261 325 31 26 14 8 3 359 355 354 353 347 343 328 336 338 334 342 341 341 344 347 348 346 345 346 349 345 344 345 350 349
72 23 15 345 24 33 109 68 43 32 12 5 335 1 359 348 6 252 218 246 245 242 212 61 11 353 348 346 345 343 340 338 335 332 329 326 325 328 326 329 329 329 329 335 339 341 340 341 343 343 344 345 347 350
32 355 2 15 51 52 45 35 22 10 353 320 288 281 317 261 278 278 252 240 206 206 235 280 299 303 316 330 328 334 336 336 334 330 325 319 319 320 319 319 322 323 322 322 327 333 335 334 335 342 345 349 351 352
358 356 11 13 54 50 24 358 333 324 323 283 265 283 279 292 304 300 261 230 229 254 271 276 280 291 305 314 317 318 325 331 332 327 317 312 312 313 314 317 319 320 317 317 321 325 327 327 325 330 343 350 352 353
349 349 335 5 46 38 347 348 356 360 2 1 259 237 290 306 290 264 269 246 260 278 293 297 299 302 302 309 316 322 325 329 328 324 318 310 308 309 311 314 317 316 312 314 320 325 327 327 328 326 329 336 343 346
335 356 339 330 352 348 352 360 356 353 11 34 40 341 281 298 289 286 287 288 323 328 330 320 317 315 314 309 308 309 315 320 316 318 321 315 310 309 310 312 315 312 306 311 318 321 323 323 323 322 320 321 325 330
315 335 348 325 315 4 348 348 15 359 6 17 20 293 263 284 276 281 342 30 350 343 337 328 312 313 322 324 313 310 312 313 314 318 321 316 313 312 310 312 311 307 303 302 309 315 317 317 316 318 317 314 313 315